Weather History for Paynesville, MN

Change the Weather History Date:

Sunday, August 17, 2014

  Actual Average (KLJF) Record (KLJF)
Temperature  
Mean Temperature 66 °F -  
Max Temperature 69 °F 82 °F 99 °F (1988)
Min Temperature 62 °F 59 °F 43 °F (1963)
Growing Degree Days 16 (Base 50)    
Moisture  
Dew Point 66 °F    
Average Humidity 98    
Maximum Humidity 100    
Minimum Humidity 94    
Precipitation  
Precipitation 0.48 in - - ()
Sea Level Pressure  
Sea Level Pressure 29.92 in    
Wind  
Wind Speed 6 mph (NNE)    
Max Wind Speed 16 mph    
Max Gust Speed 21 mph    
Visibility 4 miles    
Events Rain , Thunderstorm    
Averages and records for this station are not official NWS values.
T = Trace of Precipitation, MM = Missing Value Source: NWS Daily Summary

Daily Weather History Graph

Daily Weather History Graph

Search for Another Location

Airport:

Trip Planner

Search our weather history database for the weather conditions in past years. The results will help you decide how hot, cold, wet, or windy it might be!

Date:

Astronomy

Aug. 17, 2014 Rise Set
Actual Time 6:22 AM CDT 8:22 PM CDT
Civil Twilight 5:50 AM CDT 8:54 PM CDT
Nautical Twilight 5:10 AM CDT 9:33 PM CDT
Astronomical Twilight 4:27 AM CDT 10:16 PM CDT
Moon No Moon Rise 2:31 PM CDT (8/17)
Length of Visible Light 15h 04m
Length of Day
14h 00m
Waning Gibbous, 48% of the Moon is Illuminated
Aug 17
Waning Gibbous
Aug 25
New
Sep 2
First Quarter
Sep 8
Full
Sep 15
Last Quarter

Hourly Weather History & Observations

Time (CDT) Temp. Dew Point Humidity Pressure Visibility Wind Dir Wind Speed Gust Speed Precip Events Conditions
12:17 AM 69.8 °F 68.0 °F 94% 29.93 in 7.0 mi ENE 6.9 mph - N/A   Scattered Clouds
12:48 AM 69.8 °F 68.0 °F 94% 29.94 in 7.0 mi ENE 3.5 mph - N/A   Scattered Clouds
1:11 AM 68.0 °F 68.0 °F 100% 29.93 in 7.0 mi ENE 5.8 mph - N/A   Scattered Clouds
1:25 AM 68.0 °F 68.0 °F 100% 29.93 in 5.0 mi ENE 5.8 mph - N/A   Clear
1:45 AM 68.0 °F 68.0 °F 100% 29.93 in 5.0 mi Calm Calm - N/A   Mostly Cloudy
2:13 AM 68.0 °F 68.0 °F 100% 29.93 in 5.0 mi ENE 6.9 mph - N/A   Overcast
2:34 AM 68.0 °F 68.0 °F 100% 29.93 in 7.0 mi NE 6.9 mph - N/A   Overcast
2:52 AM 68.0 °F 68.0 °F 100% 29.94 in 7.0 mi NE 5.8 mph - N/A   Overcast
3:16 AM 68.0 °F 68.0 °F 100% 29.93 in 7.0 mi ENE 10.4 mph - N/A   Overcast
3:35 AM 68.0 °F 68.0 °F 100% 29.93 in 7.0 mi ENE 9.2 mph - N/A   Overcast
3:53 AM 68.0 °F 68.0 °F 100% 29.93 in 7.0 mi NE 9.2 mph - N/A   Overcast
4:16 AM 68.0 °F 68.0 °F 100% 29.93 in 5.0 mi ENE 8.1 mph - N/A   Overcast
4:34 AM 68.0 °F 68.0 °F 100% 29.93 in 7.0 mi ENE 8.1 mph - N/A   Overcast
4:53 AM 68.0 °F 66.2 °F 94% 29.94 in 7.0 mi ENE 6.9 mph - N/A   Overcast
5:15 AM 68.0 °F 66.2 °F 94% 29.94 in 10.0 mi East 6.9 mph - N/A   Overcast
5:28 AM 68.0 °F 66.2 °F 94% 29.93 in 7.0 mi ENE 8.1 mph - N/A   Overcast
5:52 AM 68.0 °F 66.2 °F 94% 29.94 in 7.0 mi ENE 8.1 mph - N/A   Overcast
6:14 AM 68.0 °F 66.2 °F 94% 29.94 in 5.0 mi East 8.1 mph - N/A   Overcast
6:32 AM 66.2 °F 66.2 °F 100% 29.94 in 7.0 mi NE 5.8 mph - N/A   Overcast
6:48 AM 66.2 °F 66.2 °F 100% 29.95 in 5.0 mi NE 9.2 mph - N/A   Overcast
7:05 AM 64.4 °F 64.4 °F 100% 29.95 in 7.0 mi ENE 6.9 mph - N/A   Overcast
7:36 AM 64.4 °F 64.4 °F 100% 29.95 in 5.0 mi NE 6.9 mph - N/A   Overcast
7:55 AM 64.4 °F 64.4 °F 100% 29.96 in 5.0 mi NE 5.8 mph - N/A   Overcast
8:09 AM 64.4 °F 64.4 °F 100% 29.96 in 7.0 mi NE 8.1 mph - N/A   Overcast
8:19 AM 64.4 °F 64.0 °F 99% 29.96 in 5.0 mi NE 8.1 mph - N/A Rain , Thunderstorm Rain
8:34 AM 64.0 °F 63.7 °F 99% 29.96 in 5.0 mi NE 9.2 mph - N/A Rain Light Rain
8:54 AM 63.5 °F 63.5 °F 100% 29.99 in 2.5 mi North 3.5 mph - 0.09 in Rain , Thunderstorm Heavy Thunderstorms and Rain
9:14 AM 63.5 °F 63.5 °F 100% 29.96 in 2.5 mi East 12.7 mph - 0.14 in Rain , Thunderstorm Heavy Thunderstorms and Rain
9:34 AM 63.5 °F 63.5 °F 100% 29.93 in 3.0 mi East 16.1 mph 20.7 mph 0.27 in Rain , Thunderstorm Rain
9:54 AM 64.0 °F 64.2 °F 100% 29.93 in 4.0 mi ENE 8.1 mph - 0.36 in Rain , Thunderstorm Heavy Thunderstorms and Rain
10:14 AM 64.4 °F 64.4 °F 100% 29.94 in 5.0 mi East 6.9 mph - 0.03 in Rain Light Rain
10:33 AM 64.6 °F 64.6 °F 100% 29.94 in 5.0 mi ENE 9.2 mph - 0.03 in Rain Rain
10:54 AM 64.8 °F 64.8 °F 100% 29.96 in 4.0 mi Calm Calm - 0.03 in Rain Heavy Rain
11:15 AM 64.2 °F 64.2 °F 100% 29.96 in 4.0 mi North 5.8 mph - N/A Rain Heavy Rain
11:34 AM 63.3 °F 63.3 °F 100% 29.96 in 4.0 mi North 8.1 mph - N/A Rain Heavy Rain
11:54 AM 62.6 °F 62.8 °F 100% 29.96 in 4.0 mi NNE 6.9 mph - N/A Rain Heavy Rain
12:15 PM 62.6 °F 62.6 °F 100% 29.96 in 3.0 mi North 6.9 mph - N/A Rain Heavy Rain
12:34 PM - - N/A% 29.95 in 2.0 mi NNE 8.1 mph - N/A Rain Heavy Rain
12:54 PM 63.5 °F 63.5 °F 100% 29.94 in 3.0 mi NNE 6.9 mph - N/A Rain Heavy Rain
1:14 PM 64.6 °F 64.6 °F 100% 29.94 in 4.0 mi NNE 5.8 mph - N/A Rain Heavy Rain
1:34 PM 66.0 °F 65.3 °F 98% 29.94 in 4.0 mi NNE 5.8 mph - N/A Rain Heavy Rain
1:54 PM 66.2 °F 65.1 °F 96% 29.94 in 4.0 mi North 5.8 mph - N/A Rain Heavy Rain
2:14 PM 66.4 °F 65.5 °F 97% 29.94 in 4.0 mi Calm Calm - N/A Rain Heavy Rain
2:34 PM 67.3 °F 66.0 °F 96% 29.93 in 4.0 mi North 4.6 mph - N/A Rain Heavy Rain
2:55 PM 67.5 °F 65.8 °F 95% 29.92 in 4.0 mi North 6.9 mph - N/A Rain Heavy Rain
3:14 PM 67.5 °F 66.0 °F 95% 29.92 in 4.0 mi North 8.1 mph - N/A Rain Heavy Rain
3:34 PM 67.5 °F 66.0 °F 95% 29.92 in 4.0 mi North 6.9 mph - N/A Rain Heavy Rain
3:55 PM 67.1 °F 65.5 °F 95% 29.93 in 4.0 mi North 6.9 mph - N/A Rain Heavy Rain
4:15 PM 67.1 °F 65.5 °F 95% 29.93 in 4.0 mi North 5.8 mph - N/A Rain Rain
4:34 PM 66.4 °F 65.3 °F 96% 29.93 in 3.0 mi North 8.1 mph - N/A Rain Heavy Rain
5:14 PM 66.2 °F 64.9 °F 96% 29.91 in 2.5 mi North 9.2 mph - N/A Rain Heavy Rain
5:34 PM 66.2 °F 64.8 °F 95% 29.91 in 2.5 mi North 6.9 mph - N/A Rain Heavy Rain
5:54 PM 65.5 °F 64.4 °F 96% 29.90 in 2.5 mi North 8.1 mph - N/A Rain Heavy Rain
6:14 PM 66.2 °F 64.8 °F 95% 29.89 in 2.5 mi North 6.9 mph - N/A Rain Heavy Rain
6:34 PM 66.6 °F 64.9 °F 95% 29.88 in 3.0 mi NNE 10.4 mph - N/A Rain Heavy Rain
6:54 PM 66.7 °F 65.3 °F 95% 29.88 in 3.0 mi NNE 9.2 mph - N/A Rain Heavy Rain
7:14 PM 67.1 °F 65.7 °F 95% 29.87 in 4.0 mi NNE 5.8 mph - N/A Rain Heavy Rain
7:34 PM 68.0 °F 66.4 °F 95% 29.87 in 4.0 mi NNE 5.8 mph - N/A Rain Heavy Rain
7:54 PM 68.0 °F 66.4 °F 95% 29.89 in 4.0 mi NE 3.5 mph - N/A Rain Rain
8:14 PM 67.5 °F 66.2 °F 96% 29.89 in 5.0 mi NE 4.6 mph - N/A Rain Heavy Rain
8:35 PM 66.7 °F 65.8 °F 97% 29.89 in 5.0 mi NNE 6.9 mph - N/A Rain Rain
8:54 PM 66.2 °F 65.5 °F 98% 29.88 in 3.0 mi NNE 8.1 mph - N/A Rain Rain
9:14 PM 65.8 °F 65.5 °F 99% 29.89 in 3.0 mi North 4.6 mph - N/A Rain Rain
9:35 PM 65.5 °F 65.5 °F 100% 29.89 in 2.5 mi NNE 4.6 mph - N/A Rain Rain
9:54 PM 65.5 °F 65.5 °F 100% 29.90 in 2.5 mi Calm Calm - N/A Rain Rain
10:14 PM 65.3 °F 65.5 °F 100% 29.89 in 2.5 mi Calm Calm - N/A Rain Rain
10:35 PM 65.3 °F 65.5 °F 100% 29.89 in 1.8 mi Calm Calm - N/A Rain Heavy Rain
10:54 PM 65.3 °F 65.3 °F 100% 29.88 in 1.5 mi NNW 3.5 mph - N/A Rain Heavy Rain
11:14 PM 64.6 °F 64.8 °F 100% 29.88 in 0.5 mi NNW 3.5 mph - N/A Rain Rain
11:34 PM 64.2 °F 64.4 °F 100% 29.88 in 0.5 mi North 3.5 mph - N/A Rain Rain
11:54 PM 64.2 °F 64.4 °F 100% 29.86 in 0.5 mi North 3.5 mph - N/A Rain Light Rain